DW1779 Weather Reports


Display with metric or nautical units.
time (UTC)temp
F
wind
direction
speed
MPH
gust
MPH
rain 1hr
in
rain 24hr
in
rain mn
in
humidity
%
barometer
mb
20210805012530 72 69 0.0 0.0 0.00 0.00 0.00 66 1020.9
20210805012030 73 69 0.0 0.0 0.00 0.00 0.00 65 1020.8
20210805011540 74 69 0.0 0.0 0.00 0.00 0.00 64 1020.7
20210805011030 75 69 0.0 0.0 0.00 0.00 0.00 64 1020.8
20210805010254 76 69 0.0 0.0 0.00 0.00 0.00 62 1020.7
20210805005611 76 69 0.0 0.0 0.00 0.00 0.00 61 1020.8
20210805005048 77 69 0.0 0.0 0.00 0.00 0.00 60 1020.6
20210805004654 77 69 0.0 0.0 0.00 0.00 0.00 59 1020.6
20210805004047 78 69 0.0 0.0 0.00 0.00 0.00 59 1020.6
20210805003547 78 69 0.0 0.0 0.00 0.00 0.00 59 1020.6
20210805003118 78 69 0.0 0.0 0.00 0.00 0.00 58 1020.6
20210805002546 79 71 0.0 0.0 0.00 0.00 0.00 58 1020.4
20210805002052 79 70 0.0 0.0 0.00 0.00 0.00 57 1020.4
20210805001715 79 68 0.0 1.0 0.00 0.00 0.00 57 1020.4
20210805001108 79 68 0.0 1.0 0.00 0.00 0.00 57 1020.4
20210805000053 80 71 0.0 3.0 0.00 0.00 0.00 52 1020.4
20210804235602 80 110 0.0 1.0 0.00 0.00 0.00 52 1020.4
20210804235107 80 78 0.0 0.0 0.00 0.00 0.00 57 1020.5
20210804234641 79 78 0.0 3.0 0.00 0.00 0.00 53 1020.4
20210804234108 79 101 1.0 3.0 0.00 0.00 0.00 52 1020.4
20210804233604 79 100 0.0 3.0 0.00 0.00 0.00 54 1020.5
20210804233107 79 101 1.0 6.0 0.00 0.00 0.00 51 1020.4
20210804232558 79 94 1.0 6.0 0.00 0.00 0.00 48 1020.4
20210804232041 79 67 1.0 6.0 0.00 0.00 0.00 51 1020.5
20210804231555 79 96 0.0 3.0 0.00 0.00 0.00 53 1020.4
20210804231054 79 96 0.0 5.0 0.00 0.00 0.00 50 1020.5
20210804230108 79 92 2.0 7.0 0.00 0.00 0.00 48 1020.6
20210804225541 79 107 1.0 5.0 0.00 0.00 0.00 49 1020.6
20210804225047 79 65 2.0 9.0 0.00 0.00 0.00 47 1020.7
20210804224614 80 114 3.0 10.0 0.00 0.00 0.00 46 1020.7
20210804224037 80 59 2.0 10.0 0.00 0.00 0.00 48 1020.8
20210804223538 80 66 3.0 10.0 0.00 0.00 0.00 47 1020.8
20210804223054 80 49 3.0 10.0 0.00 0.00 0.00 49 1020.9
20210804222541 81 117 2.0 9.0 0.00 0.00 0.00 48 1020.8
20210804222038 81 124 2.0 7.0 0.00 0.00 0.00 49 1020.8
20210804221619 81 68 1.0 6.0 0.00 0.00 0.00 48 1020.9
20210804220045 82 90 1.0 6.0 0.00 0.00 0.00 49 1020.9
20210804215540 82 40 0.0 7.0 0.00 0.00 0.00 47 1020.8
20210804215036 82 74 3.0 7.0 0.00 0.00 0.00 46 1020.8
20210804214541 82 96 2.0 6.0 0.00 0.00 0.00 45 1020.8
20210804214034 82 98 2.0 7.0 0.00 0.00 0.00 45 1020.9
20210804213604 83 126 3.0 11.0 0.00 0.00 0.00 45 1020.9
20210804213136 83 51 2.0 11.0 0.00 0.00 0.00 44 1020.8
20210804212535 84 37 1.0 5.0 0.00 0.00 0.00 44 1020.9
20210804212035 84 90 3.0 5.0 0.00 0.00 0.00 43 1021.0
20210804211644 84 46 2.0 5.0 0.00 0.00 0.00 45 1021.0
20210804211037 84 132 2.0 8.0 0.00 0.00 0.00 44 1021.0
20210804210146 84 98 2.0 7.0 0.00 0.00 0.00 46 1021.0
20210804205600 84 355 1.0 6.0 0.00 0.00 0.00 43 1021.1
20210804205116 84 84 1.0 7.0 0.00 0.00 0.00 44 1021.1
20210804204652 84 113 3.0 8.0 0.00 0.00 0.00 40 1021.2
20210804204056 84 96 1.0 8.0 0.00 0.00 0.00 42 1021.2
20210804203556 84 118 3.0 8.0 0.00 0.00 0.00 44 1021.3
20210804203117 84 111 2.0 8.0 0.00 0.00 0.00 46 1021.3
20210804202550 84 90 4.0 10.0 0.00 0.00 0.00 43 1021.3
20210804202051 84 72 3.0 10.0 0.00 0.00 0.00 44 1021.3
20210804201656 84 68 2.0 8.0 0.00 0.00 0.00 42 1021.4
20210804201055 84 119 5.0 10.0 0.00 0.00 0.00 41 1021.4
20210804200203 84 36 2.0 9.0 0.00 0.00 0.00 41 1021.6
20210804195550 84 35 2.0 9.0 0.00 0.00 0.00 42 1021.7
20210804195050 84 331 3.0 9.0 0.00 0.00 0.00 43 1021.7
20210804194756 84 88 4.0 8.0 0.00 0.00 0.00 45 1021.7
20210804194049 84 85 4.0 10.0 0.00 0.00 0.00 43 1021.7
20210804193549 84 19 2.0 10.0 0.00 0.00 0.00 44 1021.8
20210804193158 84 72 1.0 7.0 0.00 0.00 0.00 44 1021.8
20210804192547 84 57 2.0 9.0 0.00 0.00 0.00 42 1021.9
20210804192047 83 108 3.0 9.0 0.00 0.00 0.00 45 1021.9
20210804191640 83 34 1.0 10.0 0.00 0.00 0.00 42 1021.9
20210804191051 83 113 4.0 9.0 0.00 0.00 0.00 41 1022.0
20210804190157 83 81 3.0 8.0 0.00 0.00 0.00 42 1021.9
20210804185546 82 66 4.0 7.0 0.00 0.00 0.00 46 1021.9
20210804185045 82 172 4.0 9.0 0.00 0.00 0.00 42 1022.0
20210804184705 82 90 3.0 9.0 0.00 0.00 0.00 48 1021.9
20210804184044 82 69 2.0 10.0 0.00 0.00 0.00 43 1021.9
20210804183640 82 66 5.0 10.0 0.00 0.00 0.00 43 1021.9
20210804183112 82 92 2.0 5.0 0.00 0.00 0.00 48 1022.0
20210804182544 82 101 2.0 4.0 0.00 0.00 0.00 46 1022.1
20210804182110 82 309 1.0 7.0 0.00 0.00 0.00 44 1022.1
20210804181610 82 50 3.0 7.0 0.00 0.00 0.00 44 1022.1
20210804181104 82 92 2.0 8.0 0.00 0.00 0.00 50 1022.3
20210804180137 82 49 1.0 8.0 0.00 0.00 0.00 46 1022.4
20210804175546 82 101 2.0 14.0 0.00 0.00 0.00 47 1022.4
20210804175102 82 89 2.0 10.0 0.00 0.00 0.00 46 1022.4
20210804174654 82 80 2.0 10.0 0.00 0.00 0.00 44 1022.3
20210804174052 83 65 1.0 4.0 0.00 0.00 0.00 45 1022.5
20210804173543 82 83 1.0 6.0 0.00 0.00 0.00 45 1022.5
20210804173157 82 36 2.0 5.0 0.00 0.00 0.00 51 1022.6
20210804172541 82 5 1.0 6.0 0.00 0.00 0.00 46 1022.5
20210804172054 82 38 3.0 6.0 0.00 0.00 0.00 45 1022.6
20210804171652 82 79 2.0 8.0 0.00 0.00 0.00 47 1022.7
20210804171038 82 80 4.0 8.0 0.00 0.00 0.00 48 1022.8
20210804170058 81 108 2.0 8.0 0.00 0.00 0.00 47 1022.7
20210804165555 81 15 2.0 9.0 0.00 0.00 0.00 51 1022.8
20210804165054 81 159 4.0 9.0 0.00 0.00 0.00 48 1022.7
20210804164851 81 68 3.0 8.0 0.00 0.00 0.00 48 1022.8
20210804164044 81 53 1.0 6.0 0.00 0.00 0.00 53 1022.9
20210804163612 80 109 2.0 6.0 0.00 0.00 0.00 52 1022.9
20210804163045 80 109 2.0 6.0 0.00 0.00 0.00 50 1023.0
20210804162540 80 76 2.0 6.0 0.00 0.00 0.00 54 1022.9
20210804162038 79 5 2.0 6.0 0.00 0.00 0.00 51 1022.9
20210804161635 80 355 3.0 9.0 0.00 0.00 0.00 50 1022.9
20210804161107 79 84 1.0 4.0 0.00 0.00 0.00 54 1022.9
20210804160116 79 115 3.0 8.0 0.00 0.00 0.00 55 1022.9
20210804155545 78 136 2.0 7.0 0.00 0.00 0.00 53 1022.9
20210804155044 78 107 2.0 7.0 0.00 0.00 0.00 55 1022.9
20210804154557 77 104 1.0 6.0 0.00 0.00 0.00 57 1023.0
20210804154052 78 351 2.0 6.0 0.00 0.00 0.00 52 1022.9
20210804153539 77 82 2.0 6.0 0.00 0.00 0.00 56 1022.9
20210804153050 77 80 4.0 6.0 0.00 0.00 0.00 57 1022.9
20210804152625 77 78 2.0 5.0 0.00 0.00 0.00 57 1022.8
20210804152036 76 61 2.0 6.0 0.00 0.00 0.00 61 1022.9
20210804151546 75 76 1.0 6.0 0.00 0.00 0.00 61 1022.8
20210804151036 74 83 3.0 7.0 0.00 0.00 0.00 63 1022.7
20210804150507 73 78 2.0 7.0 0.00 0.00 0.00 66 1022.7
20210804150004 73 65 3.0 6.0 0.00 0.00 0.00 68 1022.7
20210804145502 71 49 1.0 4.0 0.00 0.00 0.00 73 1022.7
20210804145002 70 26 2.0 4.0 0.00 0.00 0.00 81 1022.6
20210804144710 69 89 0.0 0.0 0.00 0.00 0.00 83 1022.6
20210804144102 68 63 0.0 0.0 0.00 0.00 0.00 90 1022.6
20210804143607 67 81 0.0 0.0 0.00 0.00 0.00 92 1022.6
20210804143111 67 83 0.0 0.0 0.00 0.00 0.00 92 1022.6
20210804142557 67 104 0.0 1.0 0.00 0.00 0.00 93 1022.7
20210804142123 66 104 0.0 1.0 0.00 0.00 0.00 92 1022.6
20210804141646 66 101 0.0 0.0 0.00 0.00 0.00 92 1022.7
20210804141050 65 101 0.0 0.0 0.00 0.00 0.00 93 1022.7
20210804140501 64 68 0.0 0.0 0.00 0.00 0.00 93 1022.8
20210804140213 64 68 0.0 0.0 0.00 0.00 0.00 92 1022.9
20210804135604 63 68 0.0 0.0 0.00 0.00 0.00 92 1022.8
20210804135120 62 68 0.0 0.0 0.00 0.00 0.00 92 1022.8
20210804134710 61 68 0.0 0.0 0.00 0.00 0.00 92 1022.7
20210804134105 61 68 0.0 0.0 0.00 0.00 0.00 92 1022.9
20210804133553 60 68 0.0 0.0 0.00 0.00 0.00 92 1022.7
20210804133104 59 68 0.0 0.0 0.00 0.00 0.00 92 1022.8
20210804132551 59 68 0.0 0.0 0.00 0.00 0.00 92 1022.8
20210804132054 58 68 0.0 0.0 0.00 0.00 0.00 92 1022.8
20210804131706 58 68 0.0 0.0 0.00 0.00 0.00 92 1022.8
20210804131100 57 68 0.0 0.0 0.00 0.00 0.00 92 1022.9
20210804130134 55 68 0.0 0.0 0.00 0.00 0.00 91 1022.7
20210804125553 55 68 0.0 0.0 0.00 0.00 0.00 91 1022.7
20210804125102 55 68 0.0 0.0 0.00 0.00 0.00 91 1022.6
20210804124620 54 68 0.0 0.0 0.00 0.00 0.00 90 1022.7
20210804124051 54 68 0.0 0.0 0.00 0.00 0.00 91 1022.6
20210804123551 54 68 0.0 0.0 0.00 0.00 0.00 90 1022.6
20210804123140 53 68 0.0 0.0 0.00 0.00 0.00 90 1022.6
20210804122555 53 68 0.0 0.0 0.00 0.00 0.00 90 1022.6
20210804122107 53 68 0.0 0.0 0.00 0.00 0.00 90 1022.5
20210804121637 53 68 0.0 0.0 0.00 0.00 0.00 90 1022.6
20210804121055 53 68 0.0 0.0 0.00 0.00 0.00 90 1022.5
20210804120130 53 68 0.0 0.0 0.00 0.00 0.00 89 1022.5
20210804115607 53 68 0.0 0.0 0.00 0.00 0.00 89 1022.4
20210804115104 53 68 0.0 0.0 0.00 0.00 0.00 89 1022.4
20210804114634 53 68 0.0 0.0 0.00 0.00 0.00 89 1022.4
20210804114103 53 68 0.0 0.0 0.00 0.00 0.00 89 1022.4
20210804113555 53 68 0.0 0.0 0.00 0.00 0.00 89 1022.3
20210804113047 53 68 0.0 0.0 0.00 0.00 0.00 89 1022.2
20210804112545 53 68 0.0 0.0 0.00 0.00 0.00 89 1022.2
20210804112043 53 68 0.0 0.0 0.00 0.00 0.00 89 1022.2
20210804111613 53 68 0.0 0.0 0.00 0.00 0.00 89 1022.1
20210804111054 53 68 0.0 0.0 0.00 0.00 0.00 88 1022.0
20210804110110 53 68 0.0 0.0 0.00 0.00 0.00 89 1021.9
20210804105546 53 68 0.0 0.0 0.00 0.00 0.00 89 1021.9
20210804105046 53 68 0.0 0.0 0.00 0.00 0.00 88 1021.8
20210804104633 53 68 0.0 0.0 0.00 0.00 0.00 88 1021.8
20210804104045 53 68 0.0 0.0 0.00 0.00 0.00 88 1021.8
20210804103544 53 68 0.0 0.0 0.00 0.00 0.00 88 1021.7
20210804103106 54 68 0.0 0.0 0.00 0.00 0.00 88 1021.7
20210804102550 54 68 0.0 0.0 0.00 0.00 0.00 89 1021.7
20210804102103 54 68 0.0 0.0 0.00 0.00 0.00 89 1021.7
20210804101617 54 68 0.0 0.0 0.00 0.00 0.00 89 1021.7
20210804101104 54 68 0.0 0.0 0.00 0.00 0.00 89 1021.6
20210804100117 54 68 0.0 0.0 0.00 0.00 0.00 88 1021.5
20210804095542 54 68 0.0 0.0 0.00 0.00 0.00 88 1021.5
20210804095049 54 68 0.0 0.0 0.00 0.00 0.00 88 1021.5
20210804094604 54 68 0.0 0.0 0.00 0.00 0.00 88 1021.6
20210804094041 55 68 0.0 0.0 0.00 0.00 0.00 88 1021.4
20210804093607 55 68 0.0 0.0 0.00 0.00 0.00 88 1021.4
20210804093152 55 68 0.0 0.0 0.00 0.00 0.00 88 1021.5
20210804092539 55 68 0.0 0.0 0.00 0.00 0.00 88 1021.5
20210804092039 55 68 0.0 0.0 0.00 0.00 0.00 89 1021.4
20210804091607 55 68 0.0 0.0 0.00 0.00 0.00 89 1021.5
20210804091042 55 68 0.0 0.0 0.00 0.00 0.00 88 1021.5
20210804090133 55 68 0.0 0.0 0.00 0.00 0.00 88 1021.5
20210804085540 55 68 0.0 0.0 0.00 0.00 0.00 88 1021.4
20210804085039 55 68 0.0 0.0 0.00 0.00 0.00 88 1021.5
20210804084557 56 68 0.0 0.0 0.00 0.00 0.00 88 1021.3
20210804084054 56 68 0.0 0.0 0.00 0.00 0.00 88 1021.4
20210804083537 56 68 0.0 0.0 0.00 0.00 0.00 88 1021.4
20210804083142 56 68 0.0 0.0 0.00 0.00 0.00 88 1021.4
20210804082539 56 68 0.0 0.0 0.00 0.00 0.00 88 1021.4
20210804082108 56 68 0.0 0.0 0.00 0.00 0.00 88 1021.3
20210804081553 56 68 0.0 0.0 0.00 0.00 0.00 88 1021.3
20210804081049 56 68 0.0 0.0 0.00 0.00 0.00 88 1021.3
20210804080049 56 68 0.0 0.0 0.00 0.00 0.00 88 1021.3
20210804075538 56 68 0.0 0.0 0.00 0.00 0.00 88 1021.3
20210804075038 57 68 0.0 0.0 0.00 0.00 0.00 88 1021.2
20210804074620 57 68 0.0 0.0 0.00 0.00 0.00 88 1021.2
20210804074041 57 68 0.0 0.0 0.00 0.00 0.00 88 1021.1
20210804073536 57 68 0.0 0.0 0.00 0.00 0.00 88 1021.2
20210804073059 57 68 0.0 0.0 0.00 0.00 0.00 88 1021.2
20210804072538 57 68 0.0 0.0 0.00 0.00 0.00 88 1021.2
20210804072034 57 68 0.0 0.0 0.00 0.00 0.00 88 1021.1
20210804071600 57 68 0.0 0.0 0.00 0.00 0.00 88 1021.1
20210804071036 57 68 0.0 0.0 0.00 0.00 0.00 88 1021.1
20210804070112 58 68 0.0 0.0 0.00 0.00 0.00 88 1020.9
20210804065548 58 68 0.0 0.0 0.00 0.00 0.00 87 1021.1
20210804065057 58 68 0.0 0.0 0.00 0.00 0.00 87 1021.1
20210804064711 58 68 0.0 0.0 0.00 0.00 0.00 87 1021.1
20210804064047 58 68 0.0 0.0 0.00 0.00 0.00 87 1021.0
20210804063542 58 68 0.0 0.0 0.00 0.00 0.00 87 1021.1
20210804063103 58 68 0.0 0.0 0.00 0.00 0.00 87 1021.0
20210804062541 58 68 0.0 0.0 0.00 0.00 0.00 87 1021.0
20210804062041 58 68 0.0 0.0 0.00 0.00 0.00 87 1021.1
20210804061606 58 68 0.0 0.0 0.00 0.00 0.00 87 1021.1
20210804053113 60 68 0.0 0.0 0.00 0.00 0.00 87 1020.9
20210804052600 60 68 0.0 0.0 0.00 0.00 0.00 87 1020.8
20210804052035 60 68 0.0 0.0 0.00 0.00 0.00 86 1020.7
20210804051857 60 68 0.0 0.0 0.00 0.00 0.00 86 1020.7
20210804051045 60 68 0.0 0.0 0.00 0.00 0.00 86 1020.8
20210804050504 60 68 0.0 0.0 0.00 0.00 0.00 86 1020.8
20210804050117 60 68 0.0 0.0 0.00 0.00 0.00 86 1020.7
20210804045533 60 68 0.0 0.0 0.00 0.00 0.00 87 1020.6
20210804045038 61 68 0.0 0.0 0.00 0.00 0.00 86 1020.6
20210804044610 61 68 0.0 0.0 0.00 0.00 0.00 86 1020.6
20210804044032 61 68 0.0 0.0 0.00 0.00 0.00 86 1020.5
20210804043534 61 68 0.0 0.0 0.00 0.00 0.00 86 1020.5
20210804043120 61 68 0.0 0.0 0.00 0.00 0.00 86 1020.4
20210804042537 61 68 0.0 0.0 0.00 0.00 0.00 86 1020.3
20210804042044 61 68 0.0 0.0 0.00 0.00 0.00 86 1020.3
20210804041553 62 68 0.0 0.0 0.00 0.00 0.00 86 1020.2
20210804041031 62 68 0.0 0.0 0.00 0.00 0.00 85 1020.3
20210804040100 62 68 0.0 0.0 0.00 0.00 0.00 85 1020.2
20210804035550 62 68 0.0 0.0 0.00 0.00 0.00 85 1020.1
20210804035129 62 68 0.0 0.0 0.00 0.00 0.00 85 1020.1
20210804034620 63 68 0.0 0.0 0.00 0.00 0.00 85 1020.1
20210804034050 63 68 0.0 0.0 0.00 0.00 0.00 85 1020.1
20210804033552 63 68 0.0 0.0 0.00 0.00 0.00 85 1020.2
20210804033144 63 68 0.0 0.0 0.00 0.00 0.00 85 1020.2
20210804032552 63 68 0.0 0.0 0.00 0.00 0.00 84 1020.2
20210804032054 64 68 0.0 0.0 0.00 0.00 0.00 84 1020.1
20210804031719 64 68 0.0 0.0 0.00 0.00 0.00 84 1020.1
20210804031105 64 68 0.0 0.0 0.00 0.00 0.00 83 1020.1
20210804030114 64 68 0.0 0.0 0.00 0.00 0.00 83 1020.1
20210804025548 65 68 0.0 0.0 0.00 0.00 0.00 83 1020.1
20210804025102 65 68 0.0 0.0 0.00 0.00 0.00 83 1020.2
20210804024630 65 68 0.0 0.0 0.00 0.00 0.00 82 1020.2
20210804024048 65 68 0.0 0.0 0.00 0.00 0.00 82 1020.0
20210804023550 66 68 0.0 0.0 0.00 0.00 0.00 82 1020.0
20210804023123 66 68 0.0 0.0 0.00 0.00 0.00 82 1019.9
20210804022552 66 68 0.0 0.0 0.00 0.00 0.00 81 1019.9
20210804022048 67 68 0.0 0.0 0.00 0.00 0.00 81 1019.9
20210804021651 67 68 0.0 0.0 0.00 0.00 0.00 81 1019.9